Home   Weather   Colombia   Past weeks
Flag for Mexico

Past Weather in Colombia, Nuevo León, Mexico — Yesterday and Last 2 Weeks

Now
93 °F

Broken clouds.


Feels Like: 99 °F
Forecast: 96 / 78 °F
Wind: 21 mph from South

Location: Laredo International Airport

Current Time: May 26, 2019 at 2:45:17 pm

Latest Report: May 26, 2019 at 1:56 pm


Visibility: 10 mi

Pressure: 29.91 "Hg

Humidity: 47%

Dew Point: 70 °F

Location of ColombiaLocation

Past Weather in Colombia — Graph

°F

Colombia Temperature Yesterday

Maximum temperature yesterday: 97 °F (at 3:56 pm)
Minimum temperature yesterday: 80 °F (at 2:56 am)
Average temperature yesterday: 86 °F

High & Low Weather Summary for the Past Weeks

 TemperatureHumidityPressure
High99 °F (May 18, 5:56 pm)94% (May 12, 6:20 am)30.01 "Hg (May 12, 6:20 am)
Low63 °F (May 12, 6:20 am)29% (May 21, 4:56 pm)29.46 "Hg (May 21, 3:56 am)
Average82 °F70%29.81 "Hg
* Reported May 11 12:27 pm — May 26 12:56 pm, Colombia. Weather by CustomWeather, © 2019

Note: Actual official high and low records may vary slightly from our data, if they occured in-between our weather recording intervals... More about our weather records

Advertising

Colombia Weather History for the Previous 24 Hours

Scroll right to see more
 ConditionsComfort  
Time TempWeatherWind HumidityBarometerVisibility
12:56 pm
Sun, May 26
92 °FPartly sunny.21 mph51%29.94 "Hg10 mi
11:56 am90 °FMostly cloudy.22 mph56%29.96 "Hg10 mi
11:20 am88 °FBroken clouds.20 mph62%29.98 "Hg10 mi
10:56 am87 °FMostly cloudy.20 mph63%29.96 "Hg10 mi
9:56 am84 °FPartly sunny.20 mph70%29.97 "Hg10 mi
8:56 am81 °FMostly cloudy.17 mph77%29.97 "Hg10 mi
7:56 am79 °FCloudy.17 mph82%29.95 "Hg9 mi
6:56 am78 °FMostly cloudy.13 mph84%29.93 "Hg8 mi
6:36 am77 °FOvercast.12 mph89%29.94 "Hg9 mi
5:56 am77 °FMostly cloudy.13 mph88%29.90 "Hg10 mi
4:56 am77 °FMostly cloudy.15 mph85%29.90 "Hg10 mi
3:56 am77 °FPartly cloudy.10 mph85%29.89 "Hg10 mi
3:39 am77 °FPassing clouds.12 mph83%29.91 "Hg10 mi
2:56 am77 °FPassing clouds.13 mph85%29.90 "Hg10 mi
2:30 am79 °FPassing clouds.14 mph79%29.93 "Hg10 mi
1:56 am78 °FPassing clouds.18 mph79%29.93 "Hg10 mi
12:56 am79 °FClear.22 mph79%29.93 "Hg10 mi
11:56 pm
Sat, May 25
80 °FClear.16 mph74%29.96 "Hg10 mi
11:36 pm81 °FPassing clouds.18 mph74%29.97 "Hg10 mi
10:56 pm82 °FPassing clouds.16 mph72%29.96 "Hg10 mi
9:56 pm84 °FClear.21 mph65%29.90 "Hg10 mi
8:56 pm88 °FClear.23 mph52%29.87 "Hg10 mi
7:56 pm91 °FSunny.23 mph44%29.85 "Hg10 mi
6:56 pm95 °FSunny.21 mph39%29.84 "Hg10 mi
5:56 pm96 °FPassing clouds.20 mph38%29.82 "Hg10 mi
4:56 pm97 °FPassing clouds.20 mph37%29.84 "Hg10 mi
3:56 pm97 °FPassing clouds.17 mph39%29.86 "Hg10 mi
2:56 pm96 °FScattered clouds.22 mph40%29.89 "Hg10 mi
Weather by CustomWeather, © 2019

See weather overview